Estherville, IA

5:07 PM CDT on September 19, 2017 (GMT -0500)
Estherville Municipal

Weather History for KEST - January, 2013

Change the Weather History Date:

Saturday, January 5, 2013

  Actual Average Record
Temperature  
Mean Temperature 16 °F 16 °F  
Max Temperature 27 °F 24 °F 55 °F (2012)
Min Temperature 5 °F 7 °F -20 °F (1960)
Degree Days  
Heating Degree Days 49 49  
Month to date heating degree days 252 245  
Since 1 July heating degree days 3180 3388  
Cooling Degree Days 0 0  
Month to date cooling degree days 0 0  
Year to date cooling degree days 0 0  
Moisture  
Dew Point 11 °F    
Average Humidity 81    
Maximum Humidity 88    
Minimum Humidity 73    
Precipitation  
Precipitation 0.00 in 0.01 in 0.15 in (1951)
Month to date precipitation T 0.04  
Sea Level Pressure  
Sea Level Pressure 30.03 in    
Wind  
Wind Speed 13 mph (West)    
Max Wind Speed 24 mph    
Max Gust Speed 31 mph    
Visibility 8 miles    
Events      
T = Trace of Precipitation, MM = Missing Value Source: NWS Daily Summary

Daily Weather History Graph

Daily Weather History Graph

Search for Another Location

Airport or City:

Trip Planner

Search our weather history database for the weather conditions in past years. The results will help you decide how hot, cold, wet, or windy it might be!

Date:

Astronomy

Jan. 05, 2013 Rise Set
Actual Time 7:51 AM CST 4:57 PM CST
Civil Twilight 7:19 AM CST 5:30 PM CST
Nautical Twilight 6:43 AM CST 6:05 PM CST
Astronomical Twilight 6:08 AM CST 6:40 PM CST
Moon 12:52 AM CST (1/5) 11:53 AM CST (1/5)
Length of Visible Light 10h 10m
Length of Day
9h 06m
Last Quarter, 44% of the Moon is Illuminated
Jan 5
Last Quarter
Jan 11
New
Jan 18
First Quarter
Jan 26
Full
Feb 3
Last Quarter

Hourly Weather History & Observations

Time (CST) Temp. Windchill Dew Point Humidity Pressure Visibility Wind Dir Wind Speed Gust Speed Precip Events Conditions
12:52 AM 12.9 °F 6.9 °F 8.1 °F 81% 30.12 in 9.0 mi SW 3.5 mph - N/A   Clear
1:52 AM 10.9 °F 0.2 °F 7.0 °F 84% 30.09 in 8.0 mi South 6.9 mph - N/A   Clear
3:52 AM 8.1 °F -6.2 °F 5.0 °F 87% 30.07 in 7.0 mi South 10.4 mph - N/A   Clear
4:52 AM 7.0 °F -7.5 °F 3.9 °F 87% 30.06 in 6.0 mi South 10.4 mph - N/A   Clear
6:52 AM 7.0 °F -1.7 °F 3.9 °F 87% 30.05 in 5.0 mi SW 4.6 mph - N/A   Clear
7:52 AM 8.1 °F -5.3 °F 3.9 °F 83% 30.03 in 6.0 mi SSW 9.2 mph - N/A   Clear
9:52 AM 15.1 °F 3.3 °F 10.0 °F 80% 30.03 in 9.0 mi WSW 9.2 mph - N/A   Clear
10:52 AM 17.1 °F 3.0 °F 10.9 °F 77% 30.00 in 9.0 mi SSW 13.8 mph - N/A   Clear
11:52 AM 19.0 °F 5.0 °F 12.9 °F 77% 29.97 in 8.0 mi WSW 15.0 mph - N/A   Clear
12:52 PM 21.0 °F 9.3 °F 15.1 °F 78% 29.95 in 8.0 mi WSW 11.5 mph - N/A   Clear
1:52 PM 24.1 °F 16.0 °F 17.1 °F 75% 29.93 in 8.0 mi WSW 6.9 mph - N/A   Clear
2:52 PM 25.0 °F 12.6 °F 17.1 °F 72% 29.94 in 8.0 mi West 15.0 mph - N/A   Clear
3:52 PM 25.0 °F 12.6 °F 17.1 °F 72% 29.96 in 9.0 mi WNW 15.0 mph - N/A   Clear
4:52 PM 23.0 °F 8.0 °F 17.1 °F 78% 29.99 in 10.0 mi WNW 20.7 mph - N/A   Clear
5:52 PM 21.0 °F 5.7 °F 15.1 °F 78% 30.01 in 10.0 mi WNW 19.6 mph - N/A   Clear
6:52 PM 19.9 °F 4.8 °F 14.0 °F 78% 30.05 in 10.0 mi NW 18.4 mph - N/A   Overcast
7:38 PM 19.4 °F 5.0 °F 15.8 °F 86% 29.99 in 10.0 mi NW 16.1 mph - N/A   Overcast
7:48 PM 19.4 °F 5.0 °F 15.8 °F 86% 29.99 in 10.0 mi NNW 16.1 mph - N/A   Overcast
7:52 PM 19.9 °F 5.7 °F 14.0 °F 78% 30.07 in 10.0 mi NNW 16.1 mph - N/A   Overcast
8:52 PM 16.0 °F -1.7 °F 10.9 °F 81% 30.09 in 4.0 mi NW 21.9 mph 31.1 mph N/A   Haze
9:27 PM 14.0 °F -2.5 °F 8.6 °F 79% 30.02 in 6.0 mi NW 17.3 mph - N/A   Haze
9:52 PM 14.0 °F -3.4 °F 10.0 °F 84% 30.12 in 6.0 mi NW 19.6 mph - N/A   Overcast
11:20 PM 14.0 °F -2.0 °F 10.4 °F 86% 30.07 in 9.0 mi NW 16.1 mph - N/A   Scattered Clouds
11:52 PM 12.9 °F -3.4 °F 7.0 °F 77% 30.14 in 10.0 mi NW 16.1 mph - N/A   Clear